Location: *
(41.3833°S, 177.8333°W)
Time: 08:13:59
(UTC+00:00)

Cosmos 2026 Rocket - Pass Details

Date: 01 April 2020
Orbit: 940 x 1000 km, 82.9° (Epoch: 03 June)

Event Time Altitude Azimuth Distance (km) Brightness Sun altitude
Rises 16:39:43 0° 193° (SSW) 3,757 7.0 -17.3°
Reaches altitude 10° 16:42:20 10° 197° (SSW) 2,797 6.3 -16.8°
Maximum altitude 16:48:32 53° 271° (W) 1,218 4.1 -15.7°
Drops below altitude 10° 16:54:37 10° 345° (NNW) 2,734 6.1 -14.6°
Sets 16:57:09 0° 350° (N) 3,665 6.8 -14.1°
